Accueil
METAR-TAF:

METAR-TAF

Aéroports :

Saint-Brieuc, France

Aéroport de Saint-Brieuc Armor

latitude: 48-32N, longitude: 002-51W, altitude: 138 m

Observation

Le bulletin a été fait il y a 6 heures et 57 minutes, à 21:00 UTC
Vent 4 kt de ouest
Température 11°C
Humidité 94%
Pression 1016 hPa
Visibilité 10 km ou plus
Nuages épars à une hauteur de 1300 ft
Nuages fragmentés à une hauteur de 2000 ft

METAR: LFRT 222100Z AUTO 28004KT 9999 SCT013 BKN020 11/10 Q1016

Heure: 05:57 (03:57 UTC)


TAF: absent

Observations et prévisions météorologiques de plus de 4000 aéroports (messages METAR et TAF).

Les stations disponibles sont représentées par des disques jaunes et rouges sur la carte.

Passer la souris dessus pour voir le nom de la station.

Cliquer dessus pour voir les observations et prévisions météorologiques.

Pour changer de carte: cliquez sur les boutons verts avec une croix noire pour zoomer, sur le bouton vert avec un tiret pour effectuer un zoom arrière, ou sur les flèches vertes pour les cartes adjacentes.


METAR-TAF: